Location: F?ge?el
(45.8833°N, 22.5833°E)
Time: 11:52:13
(UTC+00:00)

Iridium 4 Rocket - Pass Details

Date: 17 November 2025
Orbit: 579 x 888 km, 86.9° (Epoch: 11 December)

Event Time Altitude Azimuth Distance (km) Brightness Sun altitude
Rises 15:18:00 0° 185° (S) 3,264 7.2 -4.3°
Reaches altitude 10° 15:20:27 10° 187° (S) 2,292 6.4 -4.7°
Maximum altitude 15:25:32 75° 273° (W) 744 3.7 -5.5°
Drops below altitude 10° 15:30:13 10° 359° (N) 2,109 5.6 -6.2°
Sets 15:32:24 0° 1° (N) 2,983 6.3 -6.6°
